Zurück zum Katalog

THORAD AGENA D DEB

AktivLEO
NORAD 4753·DEBRIS·🇺🇸 United States

Gestartet Apr 8, 1970 von Vandenberg Space Force Base

Loading…

Nächste Überflüge (nächste 24 Stunden)

TLE

AktuellSource: Space-Track

Epoche: Sep 14, 2026, 07:33 UTC

1 04753U 70025DB  26257.31502547  .00000916  00000-0  85277-3 0  9990
2 04753 100.0009  34.2377 0007142  88.3590 271.8381 13.85086526815181

Verfolge THORAD AGENA D DEB in Echtzeit mit AllMySat

Download on the App Store